When you browse on this site, cookies collect data to enhance your experience and personalize the content and advertising you see.
Visit our Privacy Policy to learn more. By continuing to use the site, you agree to this use of cookies and data.
  • In Latvia
  • List of Countries
  • For 7 days
  • Water Temperature
  • Satellite Maps
  • Weather Map
  • Weather Widgets
  • user-avatar
    Login

    Hourly Weather Tottori

    Today, 15 December, Saturday

    Time Temperature Precipitation Wind Pressure Humidity
    00:00 +2°C° 0.3 mm 3 mps 739 mmHg 86%
    01:00 +2°C° 0.2 mm 3 mps 739 mmHg 86%
    02:00 +2°C° 0.2 mm 3 mps 739 mmHg 87%
    03:00 +2°C° 0 mm 3 mps 739 mmHg 87%
    04:00 +2°C° 0.3 mm 3 mps 739 mmHg 88%
    05:00 +2°C° 0.3 mm 3 mps 739 mmHg 88%
    06:00 +2°C° 0.3 mm 3 mps 739 mmHg 88%
    07:00 +2°C° 0.1 mm 3 mps 739 mmHg 85%
    08:00 +2°C° 0.1 mm 3 mps 740 mmHg 82%
    09:00 +4°C° 0 mm 2 mps 740 mmHg 76%
    10:00 +5°C° 0.1 mm 2 mps 740 mmHg 73%
    11:00 +5°C° 0.1 mm 2 mps 740 mmHg 70%
    12:00 +5°C° 0.1 mm 2 mps 740 mmHg 66%
    13:00 +5°C° 0 mm 2 mps 740 mmHg 65%
    14:00 +6°C° 0 mm 2 mps 739 mmHg 64%
    15:00 +6°C° 0 mm 2 mps 739 mmHg 62%
    16:00 +6°C° 0 mm 1 mps 739 mmHg 68%
    17:00 +4°C° 0 mm 1 mps 739 mmHg 74%
    18:00 +3°C° 0 mm 1 mps 739 mmHg 80%
    19:00 +3°C° 0 mm 1 mps 739 mmHg 81%
    20:00 +2°C° 0 mm 1 mps 739 mmHg 82%
    21:00 +2°C° 0 mm 1 mps 739 mmHg 84%
    22:00 +2°C° 0 mm 1 mps 738 mmHg 83%
    23:00 +2°C° 0 mm 1 mps 738 mmHg 83%

    Tomorrow, 16 December, Sunday

    Time Temperature Precipitation Wind Pressure Humidity
    00:00 -1°C° 0 mm 2 mps 738 mmHg 83%
    01:00 -1°C° 0 mm 2 mps 737 mmHg 83%
    02:00 -1°C° 0 mm 2 mps 737 mmHg 83%
    03:00 -1°C° 0 mm 2 mps 736 mmHg 83%
    04:00 -1°C° 0 mm 2 mps 736 mmHg 84%
    05:00 -1°C° 0 mm 2 mps 736 mmHg 85%
    06:00 -1°C° 0 mm 2 mps 736 mmHg 87%
    07:00 +2°C° 0 mm 2 mps 736 mmHg 83%
    08:00 +3°C° 0 mm 2 mps 735 mmHg 80%
    09:00 +5°C° 0 mm 2 mps 735 mmHg 77%
    10:00 +5°C° 0 mm 3 mps 735 mmHg 73%
    11:00 +7°C° 0 mm 3 mps 734 mmHg 70%
    12:00 +8°C° 0 mm 3 mps 734 mmHg 66%
    13:00 +8°C° 0.2 mm 3 mps 733 mmHg 70%
    14:00 +8°C° 0.2 mm 3 mps 732 mmHg 74%
    15:00 +7°C° 0.2 mm 3 mps 732 mmHg 77%
    16:00 +7°C° 0.6 mm 3 mps 731 mmHg 82%
    17:00 +5°C° 0.6 mm 3 mps 731 mmHg 86%
    18:00 +4°C° 0.6 mm 3 mps 731 mmHg 91%
    19:00 +5°C° 0.9 mm 2 mps 731 mmHg 92%
    20:00 +5°C° 0.9 mm 2 mps 730 mmHg 93%
    21:00 +5°C° 0.9 mm 2 mps 730 mmHg 94%
    22:00 +5°C° 0.5 mm 2 mps 730 mmHg 94%
    23:00 +5°C° 0.5 mm 2 mps 729 mmHg 94%

    Day after tomorrow, 17 December, Monday

    Time Temperature Precipitation Wind Pressure Humidity
    00:00 +5°C° 0.5 mm 2 mps 729 mmHg 94%
    01:00 +4°C° 0 mm 2 mps 729 mmHg 94%
    02:00 +4°C° 0 mm 2 mps 728 mmHg 93%
    03:00 +4°C° 0 mm 2 mps 728 mmHg 93%
    04:00 +3°C° 0 mm 2 mps 728 mmHg 93%
    05:00 +3°C° 0 mm 2 mps 727 mmHg 93%
    06:00 +3°C° 0 mm 2 mps 727 mmHg 93%
    07:00 +3°C° 0.1 mm 3 mps 727 mmHg 90%
    08:00 +3°C° 0.1 mm 3 mps 727 mmHg 87%
    09:00 +4°C° 0.1 mm 3 mps 727 mmHg 85%
    10:00 +5°C° 0.1 mm 4 mps 727 mmHg 80%
    11:00 +6°C° 0.1 mm 5 mps 727 mmHg 75%
    12:00 +6°C° 0.1 mm 7 mps 727 mmHg 70%
    13:00 +6°C° 0.1 mm 7 mps 727 mmHg 68%
    14:00 +5°C° 0.1 mm 7 mps 727 mmHg 67%
    15:00 +5°C° 0.1 mm 8 mps 727 mmHg 65%
    16:00 +4°C° 0 mm 7 mps 727 mmHg 68%
    17:00 +2°C° 0 mm 6 mps 727 mmHg 71%
    18:00 +1°C° 0 mm 5 mps 728 mmHg 74%
    19:00 +1°C° 0 mm 5 mps 728 mmHg 75%
    20:00 0°C° 0 mm 5 mps 728 mmHg 76%
    21:00 0°C° 0 mm 5 mps 729 mmHg 77%
    22:00 0°C° 0.1 mm 4 mps 729 mmHg 78%
    23:00 0°C° 0.1 mm 4 mps 729 mmHg 79%

    18 December, Tuesday

    Time Temperature Precipitation Wind Pressure Humidity
    00:00 0°C° 0.1 mm 4 mps 729 mmHg 80%
    01:00 -1°C° 0.1 mm 4 mps 729 mmHg 81%
    02:00 -1°C° 0.1 mm 4 mps 729 mmHg 82%
    03:00 -1°C° 0.1 mm 4 mps 729 mmHg 83%
    04:00 -1°C° 0 mm 4 mps 729 mmHg 83%
    05:00 -1°C° 0 mm 4 mps 729 mmHg 83%
    06:00 -1°C° 0 mm 4 mps 729 mmHg 84%
    07:00 0°C° 0 mm 4 mps 730 mmHg 79%
    08:00 +1°C° 0 mm 4 mps 730 mmHg 75%
    09:00 +2°C° 0 mm 5 mps 731 mmHg 71%
    10:00 +3°C° 0 mm 5 mps 731 mmHg 66%
    11:00 +4°C° 0 mm 6 mps 731 mmHg 62%
    12:00 +5°C° 0 mm 6 mps 731 mmHg 57%
    13:00 +4°C° 0.1 mm 6 mps 731 mmHg 60%
    14:00 +4°C° 0.1 mm 6 mps 730 mmHg 62%
    15:00 +4°C° 0.1 mm 6 mps 730 mmHg 64%
    16:00 +3°C° 0.1 mm 5 mps 730 mmHg 69%
    17:00 +2°C° 0.1 mm 5 mps 731 mmHg 74%
    18:00 +1°C° 0.1 mm 5 mps 731 mmHg 78%
    19:00 +1°C° 0.1 mm 4 mps 731 mmHg 80%
    20:00 +1°C° 0.1 mm 4 mps 731 mmHg 83%
    21:00 0°C° 0.1 mm 4 mps 732 mmHg 85%
    22:00 0°C° 0.1 mm 4 mps 732 mmHg 85%
    23:00 0°C° 0.1 mm 4 mps 732 mmHg 86%

    19 December, Wednesday

    Time Temperature Precipitation Wind Pressure Humidity
    00:00 0°C° 0.1 mm 4 mps 732 mmHg 87%
    01:00 0°C° 0.1 mm 4 mps 732 mmHg 87%
    02:00 0°C° 0.1 mm 4 mps 732 mmHg 87%
    03:00 0°C° 0.1 mm 4 mps 732 mmHg 87%
    04:00 0°C° 0 mm 4 mps 732 mmHg 87%
    05:00 0°C° 0 mm 4 mps 732 mmHg 87%
    06:00 +1°C° 0 mm 3 mps 732 mmHg 87%
    07:00 +1°C° 0 mm 4 mps 733 mmHg 83%
    08:00 +3°C° 0 mm 4 mps 733 mmHg 78%
    09:00 +4°C° 0 mm 4 mps 734 mmHg 74%
    10:00 +5°C° 0 mm 4 mps 734 mmHg 68%
    11:00 +6°C° 0 mm 5 mps 734 mmHg 63%
    12:00 +7°C° 0 mm 6 mps 734 mmHg 57%
    13:00 +7°C° 0 mm 6 mps 734 mmHg 56%
    14:00 +7°C° 0 mm 5 mps 734 mmHg 55%
    15:00 +7°C° 0 mm 5 mps 734 mmHg 54%
    16:00 +6°C° 0 mm 5 mps 734 mmHg 60%
    17:00 +4°C° 0 mm 4 mps 734 mmHg 66%
    18:00 +3°C° 0 mm 3 mps 735 mmHg 72%
    19:00 +2°C° 0 mm 3 mps 735 mmHg 73%
    20:00 +2°C° 0 mm 3 mps 735 mmHg 74%
    21:00 +1°C° 0 mm 3 mps 735 mmHg 75%
    22:00 +2°C° 0 mm 2 mps 736 mmHg 76%
    23:00 +2°C° 0 mm 2 mps 736 mmHg 76%

    20 December, Thursday

    Time Temperature Precipitation Wind Pressure Humidity
    00:00 +2°C° 0 mm 2 mps 736 mmHg 76%
    01:00 +2°C° 0 mm 2 mps 736 mmHg 76%
    02:00 +2°C° 0 mm 2 mps 736 mmHg 76%
    03:00 +2°C° 0 mm 2 mps 736 mmHg 76%
    04:00 +2°C° 0 mm 2 mps 736 mmHg 76%
    05:00 +2°C° 0 mm 2 mps 736 mmHg 77%
    06:00 +2°C° 0 mm 2 mps 737 mmHg 77%
    07:00 +3°C° 0 mm 2 mps 737 mmHg 73%
    08:00 +4°C° 0 mm 2 mps 737 mmHg 69%
    09:00 +6°C° 0 mm 1 mps 738 mmHg 66%
    10:00 +8°C° 0 mm 1 mps 738 mmHg 61%
    11:00 +8°C° 0 mm 2 mps 738 mmHg 56%
    12:00 +10°C° 0 mm 2 mps 738 mmHg 50%
    13:00 +11°C° 0 mm 1 mps 738 mmHg 51%
    14:00 +11°C° 0 mm 1 mps 738 mmHg 52%
    15:00 +11°C° 0 mm 1 mps 738 mmHg 53%
    16:00 +9°C° 0 mm 1 mps 738 mmHg 58%
    17:00 +8°C° 0 mm 1 mps 738 mmHg 64%
    18:00 +5°C° 0 mm 0 mps 738 mmHg 69%
    19:00 +6°C° 0 mm 1 mps 738 mmHg 71%
    20:00 +5°C° 0 mm 1 mps 738 mmHg 73%
    21:00 +4°C° 0 mm 2 mps 737 mmHg 76%
    22:00 +4°C° 0 mm 2 mps 737 mmHg 76%
    23:00 +3°C° 0 mm 2 mps 737 mmHg 75%
    Show more